KC7FQC Weather Reports


Display with metric or nautical units.
time (UTC)temp
F
wind
direction
speed
MPH
gust
MPH
rain 1hr
in
rain 24hr
in
rain mn
in
humidity
%
barometer
mb
20181118060037 54 198 0.0 1.0 0.00 0.00 0.00 47 1017.2
20181118053038 54 198 0.0 1.0 0.00 0.00 0.00 47 1017.0
20181118050037 54 198 0.0 0.0 0.00 0.00 0.00 50 1016.9
20181118043038 55 198 0.0 0.0 0.00 0.00 0.00 50 1016.7
20181118040037 56 198 0.0 0.0 0.00 0.00 0.00 48 1016.5
20181118033037 57 198 0.0 0.0 0.00 0.00 0.00 46 1016.1
20181118030052 58 198 0.0 0.0 0.00 0.00 0.00 43 1015.7
20181118023044 60 198 0.0 0.0 0.00 0.00 0.00 40 1015.0
20181118020052 62 198 0.0 0.0 0.00 0.00 0.00 35 1014.8
20181118013023 66 198 0.0 0.0 0.00 0.00 0.00 31 1015.0
20181118010037 69 198 0.0 0.0 0.00 0.00 0.00 26 1015.0
20181118003037 73 198 0.0 2.0 0.00 0.00 0.00 22 1015.0
20181118000037 75 198 0.0 5.0 0.00 0.00 0.00 20 1015.0
20181117233007 75 197 1.0 5.0 0.00 0.00 0.00 20 1014.9
20181117230037 76 196 3.0 6.0 0.00 0.00 0.00 20 1014.9
20181117223037 77 194 6.0 6.0 0.00 0.00 0.00 19 1015.2
20181117220037 76 198 1.0 6.0 0.00 0.00 0.00 20 1015.3
20181117213037 75 196 4.0 7.0 0.00 0.00 0.00 20 1015.5
20181117210052 77 192 2.0 6.0 0.00 0.00 0.00 20 1015.8
20181117203037 75 190 1.0 9.0 0.00 0.00 0.00 21 1016.0
20181117200037 73 188 0.0 7.0 0.00 0.00 0.00 23 1016.5
20181117193037 72 199 2.0 7.0 0.00 0.00 0.00 23 1016.9
20181117190037 71 219 1.0 5.0 0.00 0.00 0.00 24 1017.3
20181117183007 69 221 0.0 6.0 0.00 0.00 0.00 26 1017.9
20181117180036 69 340 0.0 4.0 0.00 0.00 0.00 27 1018.4
20181117173037 67 339 1.0 4.0 0.00 0.00 0.00 28 1018.5
20181117170037 65 340 1.0 2.0 0.00 0.00 0.00 32 1018.6
20181117163052 61 340 0.0 2.0 0.00 0.00 0.00 35 1018.2
20181117160036 57 340 0.0 1.0 0.00 0.00 0.00 42 1017.9
20181117153037 51 340 0.0 1.0 0.00 0.00 0.00 50 1017.4
20181117150037 44 255 0.0 2.0 0.00 0.00 0.00 66 1017.2
20181117143037 43 252 0.0 1.0 0.00 0.00 0.00 65 1017.0
20181117140037 44 177 0.0 0.0 0.00 0.00 0.00 62 1016.5
20181117133037 44 177 0.0 0.0 0.00 0.00 0.00 62 1016.1
20181117130037 44 177 0.0 2.0 0.00 0.00 0.00 62 1015.9
20181117123052 45 177 0.0 1.0 0.00 0.00 0.00 63 1016.0
20181117120037 45 177 0.0 0.0 0.00 0.00 0.00 62 1015.9
20181117113036 45 177 0.0 2.0 0.00 0.00 0.00 63 1016.0
20181117110036 46 177 0.0 0.0 0.00 0.00 0.00 62 1016.0
20181117103036 46 177 0.0 0.0 0.00 0.00 0.00 60 1015.9
20181117100037 47 177 0.0 0.0 0.00 0.00 0.00 59 1015.9
20181117093036 48 177 0.0 0.0 0.00 0.00 0.00 56 1016.0
20181117090036 49 177 0.0 0.0 0.00 0.00 0.00 52 1016.1
20181117083036 50 177 0.0 0.0 0.00 0.00 0.00 50 1015.8
20181117080036 50 177 0.0 0.0 0.00 0.00 0.00 51 1015.6
20181117073036 50 177 0.0 0.0 0.00 0.00 0.00 52 1015.7
20181117070036 52 177 0.0 0.0 0.00 0.00 0.00 48 1015.9
20181117063037 53 177 0.0 0.0 0.00 0.00 0.00 45 1015.6